Weather History for Glasgow, KY

Change the Weather History Date:

Tuesday, March 12, 2013

  Actual Average Record
Temperature  
Mean Temperature 42 °F -  
Max Temperature 50 °F 59 °F 79 °F (1990)
Min Temperature 34 °F 39 °F 11 °F (1969)
Degree Days  
Heating Degree Days 23    
Moisture  
Dew Point 29 °F    
Average Humidity 66    
Maximum Humidity 84    
Minimum Humidity 44    
Precipitation  
Precipitation 0.00 in - - ()
Sea Level Pressure  
Sea Level Pressure 30.06 in    
Wind  
Wind Speed 6 mph (West)    
Max Wind Speed 14 mph    
Max Gust Speed 21 mph    
Visibility 10 miles    
Events      
Averages and records for this station are not official NWS values.
T = Trace of Precipitation, MM = Missing Value Source: NWS Daily Summary

Daily Weather History Graph

Daily Weather History Graph

Search for Another Location

Airport:

Trip Planner

Search our weather history database for the weather conditions in past years. The results will help you decide how hot, cold, wet, or windy it might be!

Date:

Astronomy

Mar. 12, 2013 Rise Set
Actual Time 6:58 AM CDT 6:48 PM CDT
Civil Twilight 6:32 AM CDT 7:14 PM CDT
Nautical Twilight 6:02 AM CDT 7:44 PM CDT
Astronomical Twilight 5:32 AM CDT 8:15 PM CDT
Moon 7:07 AM CDT (3/12) 8:00 PM CDT (3/12)
Length of Visible Light 12h 41m
Length of Day
11h 49m
New Moon, 1% of the Moon is Illuminated
Mar 12
New Moon
Mar 19
First Quarter
Mar 27
Full
Apr 2
Last Quarter
Apr 10
New

Hourly Weather History & Observations

Time (CDT) Temp. Windchill Dew Point Humidity Pressure Visibility Wind Dir Wind Speed Gust Speed Precip Events Conditions
12:15 AM 38.1 °F 32.3 °F 32.2 °F 79% 29.96 in 10.0 mi West 8.1 mph - N/A   Overcast
12:35 AM 37.9 °F 32.7 °F 32.0 °F 79% 29.96 in 10.0 mi West 6.9 mph - N/A   Overcast
12:55 AM 37.8 °F 31.8 °F 32.0 °F 80% 29.97 in 10.0 mi WNW 8.1 mph - N/A   Overcast
1:15 AM 37.8 °F 32.5 °F 32.0 °F 80% 29.97 in 10.0 mi West 6.9 mph - N/A   Overcast
1:35 AM 37.8 °F 33.3 °F 32.0 °F 80% 29.97 in 10.0 mi West 5.8 mph - N/A   Overcast
1:55 AM 37.6 °F 33.1 °F 32.0 °F 80% 29.98 in 10.0 mi West 5.8 mph - N/A   Overcast
2:15 AM 37.2 °F 31.9 °F 32.0 °F 81% 29.98 in 10.0 mi NW 6.9 mph - N/A   Overcast
2:55 AM 36.7 °F 32.9 °F 32.2 °F 84% 29.98 in 10.0 mi NW 4.6 mph - N/A   Overcast
3:15 AM 36.5 °F 33.9 °F 32.2 °F 84% 29.98 in 10.0 mi NW 3.5 mph - N/A   Overcast
4:15 AM 36.5 °F 31.0 °F 31.1 °F 81% 29.99 in 10.0 mi NW 6.9 mph - N/A   Overcast
4:35 AM 36.5 °F 31.8 °F 30.4 °F 78% 29.99 in 10.0 mi WNW 5.8 mph - N/A   Overcast
4:55 AM 36.5 °F 32.7 °F 30.6 °F 79% 30.00 in 10.0 mi WNW 4.6 mph - N/A   Overcast
5:15 AM 36.5 °F 31.8 °F 30.6 °F 79% 30.01 in 10.0 mi WNW 5.8 mph - N/A   Overcast
5:55 AM 36.0 °F 30.3 °F 29.5 °F 77% 30.02 in 10.0 mi WNW 6.9 mph - N/A   Overcast
6:15 AM 36.0 °F - 29.7 °F 78% 30.01 in 10.0 mi Calm Calm - N/A   Overcast
6:35 AM 35.6 °F 31.7 °F 29.8 °F 80% 30.02 in 10.0 mi WNW 4.6 mph - N/A   Overcast
6:55 AM 35.6 °F 31.7 °F 29.5 °F 78% 30.03 in 10.0 mi WNW 4.6 mph - N/A   Overcast
7:15 AM 35.1 °F 31.0 °F 28.8 °F 78% 30.03 in 10.0 mi WNW 4.6 mph - N/A   Overcast
7:35 AM 35.1 °F 32.2 °F 28.8 °F 78% 30.04 in 10.0 mi WNW 3.5 mph - N/A   Overcast
7:55 AM 35.2 °F 30.3 °F 28.2 °F 76% 30.05 in 10.0 mi WNW 5.8 mph - N/A   Overcast
8:15 AM 35.6 °F 29.9 °F 27.9 °F 73% 30.06 in 10.0 mi WNW 6.9 mph - N/A   Overcast
8:35 AM 36.0 °F 30.3 °F 27.5 °F 71% 30.06 in 10.0 mi NNW 6.9 mph - N/A   Mostly Cloudy
8:55 AM 37.0 °F 32.4 °F 27.0 °F 67% 30.08 in 10.0 mi NW 5.8 mph - N/A   Mostly Cloudy
9:15 AM 36.7 °F 31.2 °F 26.4 °F 66% 30.08 in 10.0 mi WNW 6.9 mph - N/A   Overcast
9:35 AM 37.2 °F 33.6 °F 26.4 °F 65% 30.08 in 10.0 mi WNW 4.6 mph - N/A   Overcast
9:55 AM 38.3 °F 33.2 °F 26.6 °F 63% 30.09 in 10.0 mi West 6.9 mph - N/A   Mostly Cloudy
10:15 AM 39.2 °F 34.2 °F 27.9 °F 64% 30.09 in 10.0 mi WNW 6.9 mph - N/A   Mostly Cloudy
10:35 AM 39.6 °F 36.3 °F 27.3 °F 62% 30.09 in 10.0 mi West 4.6 mph - N/A   Scattered Clouds
10:55 AM 40.8 °F 35.0 °F 28.0 °F 60% 30.09 in 10.0 mi West 9.2 mph - N/A   Mostly Cloudy
11:15 AM 41.4 °F 35.7 °F 28.9 °F 61% 30.10 in 10.0 mi West 9.2 mph - N/A   Mostly Cloudy
11:35 AM 41.4 °F 35.7 °F 29.5 °F 63% 30.09 in 10.0 mi WSW 9.2 mph - N/A   Scattered Clouds
11:55 AM 42.6 °F 37.8 °F 29.1 °F 59% 30.09 in 10.0 mi WSW 8.1 mph - N/A   Clear
12:15 PM 43.9 °F 41.3 °F 29.7 °F 57% 30.09 in 10.0 mi West 4.6 mph - N/A   Clear
12:35 PM 44.6 °F 40.2 °F 29.8 °F 56% 30.09 in 10.0 mi West 8.1 mph - N/A   Clear
12:55 PM 45.9 °F 40.8 °F 30.2 °F 54% 30.09 in 10.0 mi West 10.4 mph - N/A   Clear
1:15 PM 46.4 °F 41.9 °F 30.6 °F 54% 30.08 in 10.0 mi West 9.2 mph - N/A   Scattered Clouds
1:35 PM 47.1 °F - 30.7 °F 53% 30.08 in 10.0 mi SW 12.7 mph 18.4 mph N/A   Scattered Clouds
1:55 PM 48.0 °F - 31.3 °F 52% 30.08 in 10.0 mi WSW 10.4 mph - N/A   Scattered Clouds
2:15 PM 48.7 °F - 30.7 °F 50% 30.07 in 10.0 mi West 8.1 mph - N/A   Clear
2:55 PM 49.3 °F - 31.1 °F 50% 30.07 in 10.0 mi WSW 12.7 mph 20.7 mph N/A   Scattered Clouds
3:15 PM 50.0 °F - 31.1 °F 48% 30.06 in 10.0 mi WSW 9.2 mph - N/A   Clear
3:35 PM 50.0 °F - 31.1 °F 48% 30.06 in 10.0 mi WSW 13.8 mph 18.4 mph N/A   Clear
3:55 PM 50.5 °F - 30.4 °F 46% 30.06 in 10.0 mi West 9.2 mph - N/A   Clear
4:15 PM 50.7 °F - 30.4 °F 46% 30.05 in 10.0 mi WSW 12.7 mph 16.1 mph N/A   Clear
4:35 PM 50.5 °F - 29.3 °F 44% 30.05 in 10.0 mi WSW 11.5 mph 17.3 mph N/A   Scattered Clouds
4:55 PM 49.6 °F - 28.4 °F 44% 30.05 in 10.0 mi West 8.1 mph 16.1 mph N/A   Mostly Cloudy
5:15 PM 49.5 °F - 28.9 °F 45% 30.05 in 10.0 mi West 6.9 mph - N/A   Scattered Clouds
5:35 PM 49.1 °F - 28.4 °F 45% 30.05 in 10.0 mi West 9.2 mph - N/A   Scattered Clouds
5:55 PM 49.3 °F - 29.1 °F 46% 30.05 in 10.0 mi WSW 10.4 mph - N/A   Clear
6:15 PM 48.4 °F - 30.0 °F 49% 30.05 in 10.0 mi WSW 9.2 mph - N/A   Clear
6:55 PM 44.8 °F 40.4 °F 29.5 °F 55% 30.07 in 10.0 mi WSW 8.1 mph - N/A   Clear
7:15 PM 43.7 °F 41.1 °F 28.9 °F 56% 30.08 in 10.0 mi WSW 4.6 mph - N/A   Clear
7:35 PM 42.6 °F 39.9 °F 28.9 °F 58% 30.09 in 10.0 mi West 4.6 mph - N/A   Clear
7:55 PM 41.7 °F 39.8 °F 28.9 °F 61% 30.10 in 10.0 mi West 3.5 mph - N/A   Clear
8:15 PM 40.6 °F - 28.8 °F 63% 30.10 in 10.0 mi Calm Calm - N/A   Clear
8:55 PM 38.3 °F - 28.8 °F 69% 30.11 in 10.0 mi Calm Calm - N/A   Clear
9:15 PM 39.0 °F - 28.8 °F 67% 30.11 in 10.0 mi Calm Calm - N/A   Clear
9:35 PM 37.8 °F - 28.6 °F 69% 30.11 in 10.0 mi Calm Calm - N/A   Clear
9:55 PM 36.7 °F - 28.4 °F 72% 30.11 in 10.0 mi Calm Calm - N/A   Clear
10:15 PM 36.3 °F - 27.7 °F 71% 30.11 in 10.0 mi Calm Calm - N/A   Clear
10:35 PM 35.4 °F - 27.3 °F 72% 30.11 in 10.0 mi Calm Calm - N/A   Scattered Clouds
10:55 PM 35.6 °F - 27.5 °F 72% 30.12 in 10.0 mi Calm Calm - N/A   Mostly Cloudy
11:15 PM 35.6 °F - 28.0 °F 74% 30.12 in 10.0 mi Calm Calm - N/A   Mostly Cloudy
11:35 PM 34.3 °F - 28.0 °F 78% 30.12 in 10.0 mi Calm Calm - N/A   Mostly Cloudy
11:55 PM 34.2 °F - 28.2 °F 79% 30.12 in 10.0 mi Calm Calm - N/A   Overcast